Location: ???? ????
(41.4149°N, 22.8816°E)
Time: 14:46:30
(UTC+00:00)

MSX - Pass Details

Date: 14 July 2020
Orbit: 894 x 906 km, 98.8° (Epoch: 03 August)

Event Time Altitude Azimuth Distance (km) Brightness Sun altitude
Rises 02:00:06 0° 14° (NNE) 3,518 7.9 -11.0°
Reaches altitude 10° 02:02:31 10° 15° (NNE) 2,574 7.2 -10.7°
Maximum altitude 02:08:16 85° 104° (ESE) 904 3.9 -9.9°
Drops below altitude 10° 02:14:00 10° 193° (SSW) 2,562 5.7 -9.0°
Enters shadow 02:15:28 - 194° (SSW) 3,141 6.2 -8.8°
